Regional Weather Roundup
Issued by NWS Upton, NY

Current Version | Previous Version | Text Only | Print | Product List | Glossary Off
Versions: 1 2 3 4 5 6 7 8 9 10 11 12 13 14 15 16 17 18 19 20 21 22 23 24 25 26 27 28 29 30 31 32 33 34 35 36 37 38 39 40 41 42 43 44 45 46 47 48 49 50
000 ASUS41 KOKX 030908 RWROKX REGIONAL WEATHER ROUNDUP NATIONAL WEATHER SERVICE NEW YORK NY 500 AM EDT FRI JUL 03 2015 NOTE: "FAIR" INDICATES FEW OR NO CLOUDS BELOW 12,000 FEET WITH NO SIGNIFICANT WEATHER AND/OR OBSTRUCTIONS TO VISIBILITY. NYZ071-072-176-178-NJZ106-104-031000- NEW YORK CITY METRO AREA CITY SKY/WX TMP DP RH WIND PRES REMARKS CENTRAL PARK CLEAR 68 53 58 CALM 29.94R LAGUARDIA APRT PTCLDY 68 52 56 CALM 29.91R KENNEDY INTL PTCLDY 67 56 67 N7 29.92R NEWARK/LIBERTY PTCLDY 65 54 67 N6 29.92R BRNX BOT. GARD N/A 64 50 59 N7 29.90F TETERBORO CLEAR 64 54 69 N3 29.91R $$ NYZ177-179-078>081-031000- LONG ISLAND NEW YORK CITY SKY/WX TMP DP RH WIND PRES REMARKS FARMINGDALE CLEAR 65 56 72 N8 29.90R ISLIP CLEAR 63 57 81 N10 29.89R SHIRLEY CLEAR 62 59 90 N6 29.90R WESTHAMPTON CLEAR 62 61 96 N7 29.90R MONTAUK POINT N/A 66 61 84 NW5 29.89R $$ NYZ052-065-067-031000- HUDSON VALLEY CITY SKY/WX TMP DP RH WIND PRES REMARKS WHITE PLAINS CLEAR 63 48 58 N12 29.91R NEWBURGH CLEAR 57 55 94 CALM 29.95S MONTGOMERY MOCLDY 57 55 93 CALM 29.94R POUGHKEEPSIE CLEAR 55 52 89 CALM 29.94R ALBANY PTCLDY 53 47 79 CALM 29.96R $$ NJZ001-105-106-008-010-013-015-019>022-104-031000- NEW JERSEY CITY SKY/WX TMP DP RH WIND PRES REMARKS NEWARK/LIBERTY PTCLDY 65 54 67 N6 29.92R TETERBORO CLEAR 64 54 69 N3 29.91R CALDWELL CLEAR 62 55 77 CALM 29.93R MORRISTOWN CLEAR 59 57 94 CALM 29.93R FOG SOMERVILLE CLEAR 61 57 87 NW3 29.91R SUSSEX PTCLDY 54 52 93 CALM 29.95R FOG ANDOVER N/A 56 55 97 CALM 29.95R TRENTON CLEAR 63 60 90 NW3 29.92R MILLVILLE CLEAR 61 60 97 CALM 29.91R FOG ATLANTIC CITY CLEAR 62 60 93 NW3 29.91R FOG WRIGHTSTOWN CLEAR 61 61 100 CALM 29.90R TOMS RIVER CLEAR 57 55 94 CALM 29.91R BELMAR CLEAR 63 57 82 NW5 29.92R $$ PAZ047>061-062-071-031000- EASTERN PENNSYLVANIA CITY SKY/WX TMP DP RH WIND PRES REMARKS PHILADELPHIA CLEAR 67 62 84 NW3 29.92R ALLENTOWN CLEAR 62 54 74 NW3 29.95R SCRANTON MOCLDY 57 52 83 E3 29.98R $$ CTZ002-004>006-009-010-012-RIZ004-006-007-MAZ004-011-015-031000- SOUTHERN NEW ENGLAND IN CT CITY SKY/WX TMP DP RH WIND PRES REMARKS BRADLEY INTL CLEAR 56 50 80 N3 29.90R HARTFORD CLEAR 62 50 64 VRB5 29.91R DANBURY CLEAR 58 46 64 S3 29.94R WTRBRY/OXFORD CLEAR 57 46 67 NW5 29.93R BRIDGEPORT CLEAR 66 51 58 N8 29.89S MERIDEN CLEAR 61 52 72 N5 29.91R NEW HAVEN CLEAR 64 51 62 N6 29.90R CHESTER FAIR 63 55 77 N5 29.90S GROTON CLEAR 63 55 75 N8 29.87R WILLIMANTIC CLEAR 58 56 93 CALM 29.90S IN RI CITY SKY/WX TMP DP RH WIND PRES REMARKS PROVIDENCE CLEAR 64 55 72 N7 29.88R BLOCK ISLAND CLEAR 63 59 88 N6 29.87R WESTERLY CLEAR 63 58 83 N5 29.88S IN MA CITY SKY/WX TMP DP RH WIND PRES REMARKS BOSTON PTCLDY 63 52 67 N7 29.89S WORCESTER CLEAR 62 44 51 N8 29.92R WESTFIELD CLEAR 55 51 86 N6 29.92R PROVINCETOWN PTCLDY 61 5 11 NE8 29.87R NANTUCKET MOCLDY 63 60 90 CALM 29.85S FOG $$ ANZ330-335-338-340-345-350-353-355-031000- COASTAL MARINE OBSERVATIONS STATION/POSITION TIME SKY/WX TEMP WIND PRES VSBY WAVE AIR SEA DIR/SP/G HT/PER (UTC) (F) (DEG/KT/KT) (MB) (MI) (FT/S) NY HARB ENTRANCE 0850 69 69 10/ 12/ 14 1012.0 2/ 8 4S FIRE IS 0803 69 N/A 2/ 8 20S FIRE ISLAND 0850 67 67 330/ 10/ 12 1011.8 2/ 7 GREAT SOUTH BAY 0815 68 74 10/ 10/ 12 N/A 23SW MTP 0850 66 65 320/ 8/ 12 1011.1 3/ 8 HUDSON CANYON NOT AVBL KINGS POINT 0800 67 66 40/ 4/ 6 1011.8 CENTRAL LI SOUND NOT AVBL EASTERN LI SOUND 0800 65 63 320/ 6/ 8 N/A ROBBINS REEF 0800 69 360/ 12/ 14 1011.3 $$ >>>>>>>>>>>>>>>>>>>>>>>>>>>> KEY <<<<<<<<<<<<<<<<<<<<<<<<<<< > < > SKY/WX - SKY CONDITION/PRESENT WEATHER < > TMP - TEMPERATURE IN FAHRENHEIT < > DP - DEWPOINT IN FAHRENHEIT < > RH - RELATIVE HUMIDITY IN PERCENT < > WIND - DIRECTION AND SPEED IN MPH < > PRES - MEAN SEA LEVEL PRESSURE IN INCHES OF HG < > WCI - WIND CHILL INDEX < > VSB - VISIBILITY IN MILES < > HX - HEAT INDEX < > TC - TEMPERATURE IN CELSIUS < > VRB - VARIABLE WIND DIRECTION < > < >>>>>>>>>>>>>>>>>>>>>>>>>>>> KEY <<<<<<<<<<<<<<<<<<<<<<<<<<<

USA.gov is the U.S. government's official web portal to all federal, state and local government web resources and services.